STARLINK-1048, 44753

Orbit data source: Space-Track

STARLINK-1048, 44753 is a payload satellite owned by SpaceX/Seattle (US) in LEO that was launched on Mon, 11 Nov 2019 UTC via an FALCON 9 launch vehicle from the Air Force Eastern Test Range (AFETR). Payload-class satellites include a variety of spacecraft equipped with specific instruments for various scientific and technological missions. These include communications satellites like Starlink; space stations such as the ISS; scientific satellites like the Hubble; Earth observation satellites from companies like Planet Labs, Umbra, and HawkEye 360; GPS; miniature CubeSats for education and research; and military/defense satellites.

Loading next visibility...
Identifier
44753, 2019-074AS
Orbit
LEO
Country
Flag of USUS
Related business
Manufacturer
SpaceX/Seattle
Mission
Partially operational Commercial Communications
Bus & Motor
STARLINK, Unknown motor
Mass
260 kg wet, ~248 kg dry
Launch date (UTC)
2019-11-11 (6 years ago)
Launch vehicle
FALCON 9
Launch site
Air Force Eastern Test Range (AFETR)
Object type
Payload
Rocket body
Debris
Shape & HBR
Box + 1 Pan, 10.1 m
Radar Cross Section
13.562 m², Large (>1 m²)

Expand to show TLE details & history
Last TLE update: 16 hours ago

TLE from 16 hours ago
0 STARLINK-1048
1 44753U 19074AS  26100.17965336  .00109956  00000-0  13567-2 0  9997
2 44753  53.0499  16.2888 0003275 138.1179 222.0084 15.59350958353903
Epoch: 2026-04-10T04:18Z
TLE epoch observation values (Epoch: 2026-04-10T04:18:42.050Z)
Latitude
-0.00001°
Longitude
113.19656°
Altitude
392.081 km
Speed
7.675 km/s
True Right ascension
01h 05m 09s
True Declination
0° 00' 00"
Sunlit
Object was in daylight at epoch
Visualization orbit readout
Latitude
Unknown
Longitude
Unknown
Altitude
Unknown
Speed
Unknown
Apparent Right ascension
Unknown
Apparent Declination
Unknown
Sunlit
N/A
Visualization observer readout
Local Sidereal Time
02:22:15
Azimuth
Unknown
Elevation
Unknown
Doppler factor
Unknown
Orbital elements
Apogee altitude
392.028 km
Perigee altitude
387.595 km
Semi-major axis
6,767.949 km
Eccentricity
0.00033
Inclination
53.0499°
RAAN
16.2888°
Arg. of periapsis
138.1179°
True anomaly
221.98329°
Mean anomaly
222.0084°
Eccentric anomaly
221.99585°
Mean motion
3.89814 °/min
Orbital period
92.35 mins
BSTAR
0.0013567
Loading maneuver chart data...
Computing Atmospheric mass density...

Documentation

Showing up to 5 results
|